Tracking 23610 objects as of 20-Sep-2021
HD Live streaming from Space Station
objects crossing your sky now

ZDPS 2B

Track ZDPS 2B now!
10-day predictions
ZDPS 2B is classified as:


NORAD ID: 40902
Int'l Code: 2015-049D
Perigee: 504.9 km
Apogee: 521.2 km
Inclination: 97.5 °
Period: 94.7 minutes
Semi major axis: 6884 km
RCS: Unknown
Launch date: September 19, 2015
Source: People's Republic of China (PRC)
Launch site: Taiyaun Space Center, China (TSC)
aabbcc
Your satellite tracking list
Your tracking list is empty




NASA's NSSDC Master Catalog

Two Line Element Set (TLE):
1 40902U 15049D   21262.80365449  .00002246  00000-0  10744-3 0  9999
2 40902  97.4681 266.3329 0011871 202.8936 330.7924 15.19968860332279
Source of the keplerian elements: AFSPC